TimeCDT,TemperatureF,Dew PointF,Humidity,Sea Level PressureIn,VisibilityMPH,Wind Direction,Wind SpeedMPH,Gust SpeedMPH,PrecipitationIn,Events,Conditions,WindDirDegrees,DateUTC
12:58 AM,73.6,70.5,90,29.91,10.0,Variable,2.3,-,N/A,,Clear,0,2013-06-03 05:58:00
1:58 AM,71.8,69.4,92,29.91,10.0,WNW,2.3,-,N/A,,Clear,290,2013-06-03 06:58:00
2:58 AM,70.9,69.3,95,29.90,10.0,Calm,Calm,-,N/A,,Clear,0,2013-06-03 07:58:00
3:58 AM,70.9,69.4,95,29.90,10.0,Calm,Calm,-,N/A,,Partly Cloudy,0,2013-06-03 08:58:00
4:58 AM,69.6,68.7,97,29.91,10.0,South,2.3,-,N/A,,Overcast,190,2013-06-03 09:58:00
5:58 AM,70.0,69.1,97,29.92,10.0,Calm,Calm,-,N/A,,Overcast,0,2013-06-03 10:58:00
6:58 AM,73.6,70.0,88,29.93,10.0,Variable,3.5,-,N/A,,Partly Cloudy,0,2013-06-03 11:58:00
7:58 AM,77.4,69.8,77,29.95,10.0,NNW,1.2,-,N/A,,Mostly Cloudy,330,2013-06-03 12:58:00
8:58 AM,82.0,69.4,65,29.96,10.0,Variable,2.3,-,N/A,,Clear,0,2013-06-03 13:58:00
9:48 AM,84.2,69.8,62,29.95,10.0,Variable,5.8,-,N/A,,Mostly Cloudy,0,2013-06-03 14:48:00
9:58 AM,83.7,69.3,62,29.96,10.0,Variable,3.5,-,N/A,,Mostly Cloudy,0,2013-06-03 14:58:00
10:58 AM,84.6,68.4,58,29.96,10.0,Variable,4.6,-,N/A,,Mostly Cloudy,0,2013-06-03 15:58:00
11:58 AM,87.1,68.7,54,29.95,10.0,Variable,4.6,-,N/A,,Scattered Clouds,0,2013-06-03 16:58:00
12:58 PM,88.5,67.6,50,29.91,10.0,West,3.5,-,N/A,,Clear,270,2013-06-03 17:58:00
1:35 PM,87.8,69.8,55,29.90,10.0,NNW,13.8,-,N/A,,Mostly Cloudy,340,2013-06-03 18:35:00
1:58 PM,86.5,69.1,56,29.91,10.0,North,6.9,-,N/A,,Mostly Cloudy,360,2013-06-03 18:58:00
2:58 PM,89.6,65.8,45,29.88,10.0,Variable,5.8,-,N/A,,Clear,0,2013-06-03 19:58:00
3:29 PM,87.8,69.8,55,29.89,10.0,NNW,12.7,-,N/A,Rain,Light Rain,340,2013-06-03 20:29:00
3:39 PM,84.2,69.8,62,29.88,10.0,NNW,11.5,-,N/A,,Mostly Cloudy,340,2013-06-03 20:39:00
3:58 PM,85.8,68.7,56,29.88,10.0,North,6.9,-,0.00,,Mostly Cloudy,10,2013-06-03 20:58:00
4:58 PM,87.3,68.4,53,29.87,10.0,NE,5.8,-,N/A,,Clear,50,2013-06-03 21:58:00
5:58 PM,88.2,67.6,50,29.88,10.0,North,5.8,-,N/A,,Partly Cloudy,10,2013-06-03 22:58:00
6:58 PM,85.3,69.8,60,29.88,10.0,NNE,5.8,-,N/A,,Clear,30,2013-06-03 23:58:00
7:58 PM,82.0,69.6,66,29.90,10.0,NNE,3.5,-,N/A,,Partly Cloudy,20,2013-06-04 00:58:00
9:58 PM,80.1,70.7,73,29.95,10.0,Calm,Calm,-,N/A,,Mostly Cloudy,0,2013-06-04 02:58:00
10:58 PM,78.6,71.2,78,29.95,10.0,South,3.5,-,N/A,,Overcast,180,2013-06-04 03:58:00
11:58 PM,76.3,71.2,84,29.95,10.0,Calm,Calm,-,N/A,,Clear,0,2013-06-04 04:58:00